Regional Weather Roundup
Issued by NWS Spokane, WA

Home | Current Version | Previous Version | Text Only | Print | Product List | Glossary On
Versions: 1 2 3 4 5 6 7 8 9 10 11 12 13 14 15 16 17 18 19 20 21 22 23 24 25 26 27 28 29 30 31 32 33 34 35 36 37 38 39 40 41 42 43 44 45 46 47 48 49 50
000
NZUS01 KOTX 220010
RWROTX
EASTERN WASHINGTON/NORTHERN IDAHO ROUNDUP
NATIONAL WEATHER SERVICE, SPOKANE WA
500 PM PDT THU AUG 21 2014

Note: "fair" indicated few or no clouds below 12,000 feet with no
significant weather and/or obstructions to visibility.

...NORTHEAST WASHINGTON AND NORTHERN IDAHO PANHANDLE...

CITY           SKY/WX    TMP DP  RH WIND       PRES   REMARKS
SPOKANE INTL   PTSUNNY   78  44  29 W9        29.91F
SPOKANE DOWNTO MOSUNNY   80  46  30 SW6       29.90F
COEUR D ALENE  PTSUNNY   79  54  41 NE9       29.90F
DEER PARK      PTSUNNY   78  50  37 N8        29.92F
SANDPOINT      PTSUNNY   73  52  46 NE5       29.93S

...SOUTHEAST WASHINGTON AND SOUTHERN IDAHO PANHANDLE...

CITY           SKY/WX    TMP DP  RH WIND       PRES   REMARKS
WALLA WALLA    MOSUNNY   83  38  20 SW8       29.88F
PULLMAN/MOSCOW MOSUNNY   78  40  25 W6        29.93S
LEWISTON       MOSUNNY   87  43  21 NW9       29.84F
LOWELL           N/A     83  53  35 CALM      29.81F

...COLUMBIA BASIN...

CITY           SKY/WX    TMP DP  RH WIND       PRES   REMARKS
EPHRATA        PTSUNNY   81  49  32 S9        29.84F
MOSES LAKE     PTSUNNY   83  46  27 S7        29.85F
TRI CITIES     MOSUNNY   84  43  23 W8        29.82F
HERMISTON      MOSUNNY   85  27  12 W16       29.84F
PENDLETON      MOSUNNY   83  22  10 W14       29.88F

...EAST SLOPES CASCADES...

CITY           SKY/WX    TMP DP  RH WIND       PRES   REMARKS
THE DALLES     MOSUNNY   83  35  18 NW20G26   29.87S
YAKIMA         MOSUNNY   84  41  21 SE5       29.83F
ELLENSBURG     MOSUNNY   80  38  22 NW21G28   29.86F
WENATCHEE      MOSUNNY   84  49  29 SE9       29.82F
OMAK           MOSUNNY   76  50  40 N16       29.86S

...SOUTHERN BRITISH COLUMBIA...

CITY           SKY/WX    TMP DP  RH WIND       PRES   REMARKS
PENTICTON      PTSUNNY   72  50  46 S10       29.91R
CASTLEGAR      TSTM      68  48  49 SE7G28    29.96R
CRANBROOK      PTSUNNY   61  48  63 N13G20    30.06R

...WESTERN MONTANA...

CITY           SKY/WX    TMP DP  RH WIND       PRES   REMARKS
MISSOULA       LGT RAIN  70  50  49 N14G21    29.99R

...NEIGHBORING CITIES...

CITY           SKY/WX    TMP DP  RH WIND       PRES   REMARKS
SEATTLE        MOSUNNY   69  51  52 SW6       29.99F
CALGARY        CLOUDY    54  45  71 E8        30.20S



USA.gov is the U.S. government's official web portal to all federal, state and local government web resources and services.